Location: Recife
(8.0585°S, 34.8848°W)
Time: 08:09:57
(UTC-03:00)

Courier 1B - Pass Details

Date: 23 April 2026
Orbit: 962 x 1209 km, 28.3° (Epoch: 13 May)

Event Time Altitude Azimuth Distance (km) Brightness Sun altitude
Rises 07:43:07 0° 230° (SW) 4,059 10.2 32.8°
Reaches altitude 10° 07:47:14 10° 211° (SSW) 3,126 9.8 33.7°
Maximum altitude 07:51:56 17° 173° (S) 2,665 9.8 34.8°
Drops below altitude 10° 07:56:40 10° 136° (SE) 3,148 10.5 35.9°
Sets 08:00:50 0° 116° (ESE) 4,102 11.2 36.9°
